Flag for U.S.A. Weather past 2 weeks in Charleston, South Carolina, U.S.A.

Now
74 °F

Overcast.


Feels Like: 75 °F
Forecast: 70 / 78 °F
Wind: 9 mph from North

Location: Charleston Air Force Base Reporting Station

Current Time: Sep 20, 2014 at 6:15:49 PM

Latest Report: Sep 20, 2014 at 5:56 PM


Visibility: 10 mi

Pressure: 29.94 "Hg

Humidity: 76%

Dew point: 66 °F

Location of CharlestonLocation

Historic Weather in Charleston — Graph

°F

Charleston temperature yesterday

Maximum temperature yesterday: 84 °F (at 1:56 PM)
Minimum temperature yesterday: 69 °F (at 7:56 PM)
Average temperature yesterday: 74 °F

Past Weeks' High & Low Weather Summary

 TemperatureHumidityPressure
High93 °F (Sep 12, 3:56 PM)94% (Sep 8, 5:04 AM)30.20 "Hg (Sep 8, 5:04 AM)
Low69 °F (Sep 19, 7:56 PM)50% (Sep 12, 3:56 PM)29.86 "Hg (Sep 17, 4:56 PM)
Average78 °F81%30.03 "Hg
* Reported Sep 5 3:56 PM — Sep 20 3:56 PM, Charleston, Weather by CustomWeather, © 2014

Note: Actual official high and low records may vary slightly from our data, if they occured in-between our weather recording intervals... More about our weather records

Advertising

Charleston weather history for previous 24 hours

 ConditionsComfort  
Time TempWeatherWind HumidityBarometerVisibility
3:56 PM
Sep 20
74 °FLight rain. More clouds than sun.9 mph76%29.98 "Hg10 mi
2:56 PM74 °FMore clouds than sun.12 mph74%29.99 "Hg10 mi
1:56 PM75 °FMore clouds than sun.13 mph74%30.02 "Hg10 mi
8:56 AM70 °FMostly cloudy.12 mph87%30.05 "Hg10 mi
7:56 AM70 °FPartly cloudy.10 mph87%30.05 "Hg10 mi
6:56 AM70 °FPassing clouds.9 mph90%30.05 "Hg10 mi
5:56 AM71 °FLight rain. Mostly cloudy.8 mph87%30.05 "Hg9 mi
4:56 AM71 °FLight rain. Mostly cloudy.12 mph90%30.05 "Hg9 mi
3:56 AM72 °FMostly cloudy.9 mph87%30.05 "Hg9 mi
2:56 AM72 °FOvercast.6 mph91%30.06 "Hg9 mi
1:56 AM72 °FLight rain. Overcast.7 mph91%30.08 "Hg10 mi
12:56 AM72 °FLight rain. Overcast.8 mph91%30.09 "Hg8 mi
11:56 PM
Sep 19
72 °FPartly cloudy.7 mph87%30.10 "Hg10 mi
10:56 PM72 °FPartly cloudy.10 mph84%30.10 "Hg10 mi
9:56 PM72 °FPartly cloudy.9 mph87%30.10 "Hg10 mi
8:56 PM71 °FOvercast.6 mph87%30.08 "Hg10 mi
7:56 PM69 °FLight rain. Overcast.7 mph87%30.09 "Hg10 mi
6:56 PM74 °FLight rain. Cloudy.10 mph85%30.09 "Hg4 mi
Weather by CustomWeather, © 2014

See weather overviewHow to use our weather pages